Вернуться в каталог

COSMOS 2251 DEB

АктивенLEO
NORAD 35440·DEBRIS·🇷🇺 Russia

Запущен Jun 16, 1993 с Plesetsk Cosmodrome

Loading…

Ближайшие Пролёты (ближайшие 24 часа)

TLE

СвежийSource: Space-Track

Эпоха: Sep 14, 2026, 02:24 UTC

1 35440U 93036AKJ 26257.10055720  .00002014  00000-0  32893-3 0  9994
2 35440  74.0138  33.3800 0067357 106.0452 254.8151 14.70090090728108

Отслеживайте COSMOS 2251 DEB в реальном времени с AllMySat

Download on the App Store